Location: Robledo de Chavela
(40.5014°N, 4.2377°W)
Time: 13:48:27
(UTC+00:00)

Terra - Pass Details

Date: 18 April 2024
Orbit: 691 x 696 km, 98.0° (Epoch: 24 May)

Event Time Altitude Azimuth Distance (km) Brightness Sun altitude
Exits shadow 20:40:28 23° 76° (ENE) 1,464 3.1 -18.2°
Maximum altitude 20:40:58 23° 67° (ENE) 1,449 3.1 -18.3°
Drops below altitude 10° 20:44:41 10° 15° (NNE) 2,163 4.6 -18.9°
Sets 20:47:18 0° 1° (N) 3,084 5.6 -19.3°
